Location: Sevilla
(37.3933°N, 5.9839°W)
Time: 04:22:06
(UTC+02:00)

Tiros 1 despin weight - Pass Details

Date: 27 June 2024
Orbit: 576 x 620 km, 48.2° (Epoch: 22 July)

Event Time Altitude Azimuth Distance (km) Brightness Sun altitude
Rises 19:08:58 0° 299° (WNW) 2,892 ? 29.0°
Reaches altitude 10° 19:11:22 10° 293° (WNW) 1,981 ? 28.5°
Maximum altitude 19:15:41 44° 221° (SW) 851 ? 27.6°
Drops below altitude 10° 19:19:57 10° 150° (SSE) 1,951 ? 26.8°
Sets 19:22:18 0° 144° (SE) 2,844 ? 26.4°
